Columbus, NE

4:21 PM CST on December 09, 2016 (GMT -0600)
Columbus Municipal

Weather History for KOLU - November, 2014

Change the Weather History Date:

Sunday, November 30, 2014

  Actual Average Record
Temperature  
Mean Temperature 16 °F -  
Max Temperature 24 °F 39 °F 65 °F (1970)
Min Temperature 8 °F 21 °F -14 °F (1964)
Degree Days  
Heating Degree Days 49    
Moisture  
Dew Point 0 °F    
Average Humidity 51    
Maximum Humidity 74    
Minimum Humidity 39    
Precipitation  
Precipitation 0.00 in - - ()
Sea Level Pressure  
Sea Level Pressure 30.19 in    
Wind  
Wind Speed 18 mph (North)    
Max Wind Speed 23 mph    
Max Gust Speed 32 mph    
Visibility 10 miles    
Events      
Averages and records for this station are not official NWS values.
T = Trace of Precipitation, MM = Missing Value Source: NWS Daily Summary

Daily Weather History Graph

Daily Weather History Graph

Search for Another Location

Airport or City:

Trip Planner

Search our weather history database for the weather conditions in past years. The results will help you decide how hot, cold, wet, or windy it might be!

Date:

Astronomy

Nov. 30, 2014 Rise Set
Actual Time 7:35 AM CST 5:00 PM CST
Civil Twilight 7:04 AM CST 5:31 PM CST
Nautical Twilight 6:30 AM CST 6:05 PM CST
Astronomical Twilight 5:56 AM CST 6:39 PM CST
Moon 1:35 PM CST (11/30) 1:02 AM CST (11/30)
Length of Visible Light 10h 27m
Length of Day
9h 25m
Waxing Gibbous, 65% of the Moon is Illuminated
Nov 30
Waxing Gibbous
Dec 6
Full
Dec 14
Last Quarter
Dec 21
New
Dec 28
First Quarter

Hourly Weather History & Observations

Time (CST) Temp. Windchill Dew Point Humidity Pressure Visibility Wind Dir Wind Speed Gust Speed Precip Events Conditions
12:15 AM 24.8 °F 10.0 °F 17.6 °F 74% 29.76 in 10.0 mi North 21.9 mph 26.5 mph N/A   Overcast
12:35 AM 24.8 °F 10.0 °F 15.8 °F 69% 29.77 in 10.0 mi North 21.9 mph 28.8 mph N/A   Overcast
12:55 AM 24.8 °F 10.0 °F 15.8 °F 69% 29.77 in 10.0 mi North 21.9 mph 31.1 mph N/A   Overcast
1:15 AM 23.0 °F 7.2 °F 12.2 °F 63% 29.80 in 10.0 mi NNW 23.0 mph 32.2 mph N/A   Overcast
1:35 AM 21.2 °F 5.6 °F 12.2 °F 68% 29.81 in 10.0 mi North 20.7 mph 25.3 mph N/A   Overcast
1:55 AM 19.4 °F 4.1 °F 8.6 °F 63% 29.83 in 10.0 mi North 18.4 mph 25.3 mph N/A   Mostly Cloudy
2:15 AM 19.4 °F 4.1 °F 8.6 °F 63% 29.83 in 10.0 mi North 18.4 mph - N/A   Partly Cloudy
2:35 AM 17.6 °F 4.3 °F 6.8 °F 63% 29.86 in 10.0 mi North 12.7 mph - N/A   Clear
2:55 AM 17.6 °F 2.2 °F 6.8 °F 63% 29.85 in 10.0 mi North 17.3 mph 29.9 mph N/A   Clear
3:15 AM 15.8 °F 0.9 °F 6.8 °F 68% 29.86 in 10.0 mi North 15.0 mph 24.2 mph N/A   Clear
3:35 AM 15.8 °F -0.6 °F 5.0 °F 62% 29.87 in 10.0 mi North 18.4 mph 26.5 mph N/A   Clear
3:55 AM 15.8 °F 0.3 °F 3.2 °F 58% 29.87 in 10.0 mi North 16.1 mph 23.0 mph N/A   Clear
4:15 AM 15.8 °F 0.3 °F 3.2 °F 58% 29.88 in 10.0 mi NNW 16.1 mph 23.0 mph N/A   Partly Cloudy
4:35 AM 14.0 °F -2.5 °F 3.2 °F 62% 29.90 in 10.0 mi North 17.3 mph 24.2 mph N/A   Mostly Cloudy
4:55 AM 12.2 °F -4.8 °F 1.4 °F 62% 29.91 in 10.0 mi North 17.3 mph 25.3 mph N/A   Partly Cloudy
5:15 AM 12.2 °F -5.8 °F -0.4 °F 57% 29.92 in 10.0 mi North 19.6 mph 25.3 mph N/A   Clear
5:35 AM 12.2 °F -5.3 °F -0.4 °F 57% 29.94 in 10.0 mi North 18.4 mph 21.9 mph N/A   Clear
5:55 AM 10.4 °F -8.6 °F -0.4 °F 62% 29.96 in 10.0 mi NNW 20.7 mph 27.6 mph N/A   Clear
6:15 AM 10.4 °F -7.7 °F -2.2 °F 57% 29.98 in 10.0 mi NNW 18.4 mph 24.2 mph N/A   Clear
6:35 AM 10.4 °F -6.6 °F -2.2 °F 57% 29.99 in 10.0 mi North 16.1 mph 26.5 mph N/A   Clear
6:55 AM 10.4 °F -8.6 °F -2.2 °F 57% 30.01 in 10.0 mi North 20.7 mph 25.3 mph N/A   Clear
7:15 AM 10.4 °F -7.7 °F -2.2 °F 57% 30.03 in 10.0 mi NNW 18.4 mph 26.5 mph N/A   Clear
7:35 AM 10.4 °F -9.1 °F -4.0 °F 52% 30.05 in 10.0 mi NNW 21.9 mph 28.8 mph N/A   Clear
7:55 AM 8.6 °F -10.0 °F -5.8 °F 52% 30.08 in 10.0 mi North 18.4 mph 28.8 mph N/A   Clear
8:15 AM 10.4 °F -7.7 °F -5.8 °F 48% 30.10 in 10.0 mi North 18.4 mph 32.2 mph N/A   Clear
8:35 AM 10.4 °F -7.7 °F -4.0 °F 52% 30.12 in 10.0 mi NNW 18.4 mph 28.8 mph N/A   Clear
8:55 AM 10.4 °F -8.6 °F -2.2 °F 57% 30.13 in 10.0 mi NNW 20.7 mph 28.8 mph N/A   Clear
9:15 AM 12.2 °F -5.8 °F -2.2 °F 53% 30.16 in 10.0 mi North 19.6 mph 27.6 mph N/A   Clear
9:35 AM 12.2 °F -7.1 °F -2.2 °F 53% 30.17 in 10.0 mi North 23.0 mph 29.9 mph N/A   Clear
9:55 AM 12.2 °F -5.3 °F -4.0 °F 48% 30.19 in 10.0 mi NNW 18.4 mph 29.9 mph N/A   Clear
10:15 AM 12.2 °F -5.8 °F -2.2 °F 53% 30.21 in 10.0 mi NNW 19.6 mph 26.5 mph N/A   Clear
10:35 AM 14.0 °F -2.5 °F -2.2 °F 49% 30.22 in 10.0 mi North 17.3 mph 24.2 mph N/A   Clear
10:55 AM 14.0 °F -3.9 °F -2.2 °F 49% 30.23 in 10.0 mi NNW 20.7 mph 25.3 mph N/A   Clear
11:15 AM 15.8 °F -1.9 °F -2.2 °F 45% 30.22 in 10.0 mi NNW 21.9 mph 28.8 mph N/A   Clear
11:35 AM 15.8 °F -0.2 °F -2.2 °F 45% 30.23 in 10.0 mi North 17.3 mph 28.8 mph N/A   Clear
11:55 AM 15.8 °F -1.1 °F -2.2 °F 45% 30.22 in 10.0 mi North 19.6 mph 29.9 mph N/A   Clear
12:15 PM 17.6 °F 0.9 °F -2.2 °F 42% 30.22 in 10.0 mi North 20.7 mph 26.5 mph N/A   Clear
12:35 PM 17.6 °F 1.7 °F -0.4 °F 45% 30.23 in 10.0 mi NNW 18.4 mph 26.5 mph N/A   Clear
12:55 PM 19.4 °F 4.1 °F -2.2 °F 39% 30.22 in 10.0 mi North 18.4 mph 27.6 mph N/A   Clear
1:15 PM 19.4 °F 3.6 °F -0.4 °F 42% 30.22 in 10.0 mi North 19.6 mph 26.5 mph N/A   Clear
1:35 PM 19.4 °F 3.6 °F -0.4 °F 42% 30.23 in 10.0 mi North 19.6 mph 25.3 mph N/A   Clear
1:55 PM 17.6 °F 1.3 °F -2.2 °F 42% 30.23 in 10.0 mi North 19.6 mph 26.5 mph N/A   Clear
2:15 PM 19.4 °F 2.8 °F -0.4 °F 42% 30.22 in 10.0 mi North 21.9 mph 27.6 mph N/A   Clear
2:35 PM 19.4 °F 4.1 °F -2.2 °F 39% 30.23 in 10.0 mi NNW 18.4 mph 26.5 mph N/A   Clear
2:55 PM 19.4 °F 3.2 °F -0.4 °F 42% 30.24 in 10.0 mi North 20.7 mph 26.5 mph N/A   Clear
3:15 PM 19.4 °F 5.0 °F -2.2 °F 39% 30.26 in 10.0 mi North 16.1 mph 23.0 mph N/A   Clear
3:35 PM 17.6 °F 2.7 °F -2.2 °F 42% 30.28 in 10.0 mi North 16.1 mph 21.9 mph N/A   Clear
3:55 PM 17.6 °F 1.3 °F -2.2 °F 42% 30.31 in 10.0 mi NNW 19.6 mph 23.0 mph N/A   Clear
4:15 PM 17.6 °F 3.7 °F -2.2 °F 42% 30.33 in 10.0 mi North 13.8 mph - N/A   Clear
4:35 PM 17.6 °F 3.2 °F -2.2 °F 42% 30.34 in 10.0 mi North 15.0 mph 19.6 mph N/A   Clear
4:55 PM 15.8 °F 1.4 °F -2.2 °F 45% 30.35 in 10.0 mi North 13.8 mph - N/A   Clear
5:15 PM 15.8 °F 3.4 °F -2.2 °F 45% 30.36 in 10.0 mi North 10.4 mph - N/A   Clear
5:35 PM 15.8 °F 2.7 °F -2.2 °F 45% 30.39 in 10.0 mi North 11.5 mph 16.1 mph N/A   Clear
5:55 PM 15.8 °F 2.1 °F -2.2 °F 45% 30.40 in 10.0 mi North 12.7 mph 16.1 mph N/A   Clear
6:15 PM 15.8 °F 0.3 °F -2.2 °F 45% 30.41 in 10.0 mi North 16.1 mph 20.7 mph N/A   Clear
6:35 PM 15.8 °F 2.7 °F -2.2 °F 45% 30.43 in 10.0 mi North 11.5 mph - N/A   Clear
6:55 PM 15.8 °F 2.7 °F -2.2 °F 45% 30.44 in 10.0 mi North 11.5 mph - N/A   Clear
7:15 PM 15.8 °F 0.3 °F -2.2 °F 45% 30.44 in 10.0 mi North 16.1 mph - N/A   Clear
7:35 PM 15.8 °F 4.2 °F -2.2 °F 45% 30.49 in 10.0 mi North 9.2 mph - N/A   Clear
7:55 PM 15.8 °F 3.4 °F -2.2 °F 45% 30.48 in 10.0 mi North 10.4 mph - N/A   Clear
8:15 PM 15.8 °F 2.1 °F -2.2 °F 45% 30.48 in 10.0 mi North 12.7 mph - N/A   Clear
8:35 PM 15.8 °F 1.4 °F -2.2 °F 45% 30.49 in 10.0 mi NNE 13.8 mph - N/A   Clear
8:55 PM 15.8 °F 2.7 °F -2.2 °F 45% 30.50 in 10.0 mi North 11.5 mph - N/A   Clear
9:15 PM 15.8 °F 1.4 °F -2.2 °F 45% 30.52 in 10.0 mi North 13.8 mph - N/A   Clear
9:35 PM 15.8 °F 1.4 °F -2.2 °F 45% 30.52 in 10.0 mi North 13.8 mph - N/A   Clear
9:55 PM 15.8 °F 2.7 °F -2.2 °F 45% 30.52 in 10.0 mi North 11.5 mph - N/A   Clear
10:15 PM 15.8 °F 2.1 °F -2.2 °F 45% 30.55 in 10.0 mi North 12.7 mph - N/A   Clear
10:35 PM 15.8 °F 3.4 °F -2.2 °F 45% 30.56 in 10.0 mi North 10.4 mph - N/A   Clear
10:55 PM 14.0 °F 3.9 °F -4.0 °F 45% 30.57 in 10.0 mi North 6.9 mph - N/A   Clear
11:15 PM 14.0 °F 2.0 °F -2.2 °F 49% 30.58 in 10.0 mi North 9.2 mph - N/A   Clear
11:35 PM 14.0 °F 2.9 °F -2.2 °F 49% 30.59 in 10.0 mi North 8.1 mph - N/A   Clear
11:55 PM 14.0 °F 0.5 °F -2.2 °F 49% 30.60 in 10.0 mi North 11.5 mph - N/A   Clear